Hill AFB, UT

10:17 PM MST on February 21, 2017 (GMT -0700)
Hill Air Force Base

Weather History for KHIF - February, 2017

Change the Weather History Date:

Friday, February 17, 2017

  Actual Average Record
Temperature  
Mean Temperature 42 °F -  
Max Temperature 49 °F 38 °F 52 °F (2014)
Min Temperature 36 °F 24 °F 12 °F (2006)
Degree Days  
Heating Degree Days 22    
Moisture  
Dew Point 32 °F    
Average Humidity 66    
Maximum Humidity 88    
Minimum Humidity 42    
Precipitation  
Precipitation 0.06 in - - ()
Sea Level Pressure  
Sea Level Pressure 29.69 in    
Wind  
Wind Speed 8 mph (SSE)    
Max Wind Speed 29 mph    
Max Gust Speed 38 mph    
Visibility 10 miles    
Events Rain    
Averages and records for this station are not official NWS values.
T = Trace of Precipitation, MM = Missing Value Source: NWS Daily Summary

Daily Weather History Graph

Daily Weather History Graph

Search for Another Location

Airport or City:

Trip Planner

Search our weather history database for the weather conditions in past years. The results will help you decide how hot, cold, wet, or windy it might be!

Date:

Astronomy

Feb. 17, 2017 Rise Set
Actual Time 7:19 AM MST 6:05 PM MST
Civil Twilight 6:51 AM MST 6:33 PM MST
Nautical Twilight 6:18 AM MST 7:05 PM MST
Astronomical Twilight 5:47 AM MST 7:37 PM MST
Moon 12:01 AM MST (2/17) 10:58 AM MST (2/17)
Length of Visible Light 11h 42m
Length of Day
10h 45m
Waning Gibbous, 60% of the Moon is Illuminated
Feb 17
Waning Gibbous
Feb 18
Last Quarter
Feb 26
New
Mar 5
First Quarter
Mar 12
Full

Hourly Weather History & Observations

Time (MST) Temp. Windchill Dew Point Humidity Pressure Visibility Wind Dir Wind Speed Gust Speed Precip Events Conditions
12:03 AM 42.8 °F - 30.2 °F 61% 29.83 in 10.0 mi Calm Calm - N/A   Mostly Cloudy
12:53 AM 44.6 °F - 28.4 °F 53% 29.84 in 10.0 mi Calm Calm - N/A   Mostly Cloudy
12:58 AM 44.6 °F 43.1 °F 28.9 °F 54% 29.78 in 10.0 mi WNW 3.5 mph - N/A   Mostly Cloudy
1:03 AM 44.6 °F 42.2 °F 28.4 °F 53% 29.84 in 10.0 mi West 4.6 mph - N/A   Mostly Cloudy
1:18 AM 42.8 °F 40.1 °F 28.4 °F 57% 29.85 in 10.0 mi WNW 4.6 mph - N/A   Mostly Cloudy
1:23 AM 41.0 °F 38.0 °F 28.4 °F 61% 29.85 in 10.0 mi WNW 4.6 mph - N/A   Mostly Cloudy
1:27 AM 41.0 °F - 30.2 °F 65% 29.85 in 10.0 mi Calm Calm - N/A   Mostly Cloudy
1:58 AM 36.9 °F 29.6 °F 28.4 °F 71% 29.82 in 10.0 mi NW 10.4 mph - 0.00 in   Scattered Clouds
2:58 AM 36.3 °F 32.5 °F 26.8 °F 68% 29.81 in 10.0 mi SE 4.6 mph - N/A   Clear
3:58 AM 37.9 °F 35.5 °F 30.4 °F 74% 29.78 in 10.0 mi SSW 3.5 mph - N/A   Clear
4:58 AM 36.7 °F 34.1 °F 30.0 °F 77% 29.78 in 10.0 mi SE 3.5 mph - N/A   Clear
5:58 AM 36.1 °F 32.3 °F 26.6 °F 68% 29.75 in 10.0 mi East 4.6 mph - N/A   Clear
6:58 AM 36.5 °F 28.2 °F 25.3 °F 64% 29.71 in 10.0 mi ESE 12.7 mph - N/A   Clear
7:58 AM 39.2 °F 31.6 °F 23.9 °F 54% 29.73 in 10.0 mi ESE 12.7 mph - N/A   Clear
8:58 AM 39.4 °F 34.5 °F 25.2 °F 57% 29.74 in 10.0 mi East 6.9 mph - N/A   Clear
9:58 AM 44.6 °F 37.4 °F 24.6 °F 45% 29.70 in 10.0 mi ESE 16.1 mph - N/A   Clear
10:58 AM 49.1 °F - 26.6 °F 42% 29.69 in 10.0 mi ESE 12.7 mph 18.4 mph N/A   Scattered Clouds
11:43 AM 48.2 °F - 26.6 °F 43% 29.72 in 10.0 mi ESE 9.2 mph - N/A   Overcast
11:58 AM 48.7 °F - 27.3 °F 43% 29.66 in 10.0 mi ESE 10.4 mph - N/A   Overcast
12:58 PM 49.6 °F - 27.7 °F 43% 29.61 in 10.0 mi ESE 10.4 mph - N/A   Overcast
1:58 PM 47.8 °F - 33.1 °F 57% 29.62 in 10.0 mi Calm Calm - N/A   Overcast
2:58 PM 47.1 °F - 29.1 °F 50% 29.62 in 10.0 mi East 5.8 mph - N/A   Overcast
3:58 PM 47.3 °F - 35.1 °F 62% 29.61 in 10.0 mi SSE 10.4 mph - N/A Rain Light Rain
4:17 PM 46.4 °F 42.4 °F 35.6 °F 66% 29.65 in 10.0 mi SE 8.1 mph - N/A   Partly Cloudy
4:42 PM 46.4 °F 41.5 °F 35.6 °F 66% 29.64 in 10.0 mi ESE 10.4 mph - N/A Rain Light Rain
4:55 PM 44.6 °F 37.8 °F 35.6 °F 71% 29.65 in 10.0 mi SSE 15.0 mph - N/A Rain Light Rain
4:58 PM 44.6 °F 37.2 °F 35.2 °F 70% 29.62 in 10.0 mi South 17.3 mph 23.0 mph 0.00 in Rain Light Rain
5:03 PM 44.6 °F 37.4 °F 37.4 °F 76% 29.65 in 9.0 mi South 16.1 mph 23.0 mph N/A Rain Light Rain
5:14 PM 42.8 °F 36.6 °F 37.4 °F 81% 29.65 in 8.0 mi South 11.5 mph - N/A Rain Light Rain
5:24 PM 42.8 °F 36.2 °F 37.4 °F 81% 29.65 in 9.0 mi SSE 12.7 mph - N/A Rain Light Rain
5:58 PM 42.1 °F 36.1 °F 38.8 °F 88% 29.62 in 10.0 mi SE 10.4 mph - 0.02 in Rain Light Rain
6:09 PM 42.8 °F 37.0 °F 39.2 °F 87% 29.64 in 10.0 mi SE 10.4 mph - N/A Rain Light Rain
6:18 PM 42.8 °F 36.6 °F 39.2 °F 87% 29.64 in 10.0 mi SE 11.5 mph - N/A Rain Light Rain
6:58 PM 42.3 °F 34.4 °F 38.3 °F 86% 29.62 in 9.0 mi SSE 16.1 mph 21.9 mph 0.02 in Rain Light Rain
7:08 PM 42.8 °F 36.6 °F 39.2 °F 87% 29.64 in 10.0 mi SSE 11.5 mph - N/A Rain Light Rain
7:22 PM 42.8 °F 36.6 °F 39.2 °F 87% 29.64 in 10.0 mi SSE 11.5 mph - N/A   Overcast
7:47 PM 42.8 °F 32.5 °F 37.4 °F 81% 29.63 in 10.0 mi South 28.8 mph 38.0 mph N/A   Overcast
7:58 PM 43.3 °F 34.7 °F 37.8 °F 81% 29.61 in 10.0 mi South 20.7 mph 28.8 mph 0.01 in   Overcast
8:04 PM 42.8 °F 34.0 °F 37.4 °F 81% 29.64 in 10.0 mi South 20.7 mph 28.8 mph N/A Rain Light Rain
8:58 PM 43.9 °F 36.5 °F 34.5 °F 70% 29.61 in 10.0 mi South 16.1 mph - 0.01 in   Overcast
9:28 PM 44.6 °F 37.2 °F 33.8 °F 66% 29.65 in 10.0 mi South 17.3 mph - N/A   Overcast
9:58 PM 45.0 °F 37.4 °F 33.1 °F 63% 29.60 in 10.0 mi South 18.4 mph - N/A   Mostly Cloudy
10:03 PM 44.6 °F 37.2 °F 32.0 °F 61% 29.65 in 10.0 mi South 17.3 mph - N/A   Scattered Clouds
10:18 PM 44.6 °F 38.1 °F 32.0 °F 61% 29.65 in 10.0 mi South 13.8 mph 25.3 mph N/A   Mostly Cloudy
10:53 PM 44.6 °F 38.8 °F 33.8 °F 66% 29.64 in 10.0 mi South 11.5 mph - N/A   Scattered Clouds
10:58 PM 44.6 °F 38.1 °F 33.8 °F 66% 29.57 in 10.0 mi South 13.8 mph - N/A   Scattered Clouds
11:53 PM 44.6 °F 37.2 °F 32.0 °F 61% 29.64 in 10.0 mi South 17.3 mph - N/A   Mostly Cloudy
11:58 PM 45.3 °F 38.1 °F 33.3 °F 63% 29.58 in 10.0 mi South 17.3 mph - N/A   Mostly Cloudy